Weather in Sundsvall

Sweden     62°23′14″N   17°18′49″E
temp.,
°C
wind,
m/s
gust,
m/s
humid.,
%
clouds,
%
prec.,
mm/h
press.,
hPa
HPBL,
m
7 may, fri
fri723:000nnw258089 0.1 1002170
02:00−1nnw287877 0.1 1002313
05:00−1nnw396964 0.0 1002442
08:00+3n365623 0.0 10031149
11:00+5n3539100 0.1 10021932
14:00+8nnw3433100 0.1 10022549
17:00+8n253099 0.0 10022303
20:00+6n1554100 0.1 1003255
8 may, sat
sat823:00+1nw227159 0.1 100433
02:00−1wnw22765 0.1 100537
05:00−1w23855 0.0 100666
08:00+4nw47492 0.0 1006888
11:00+8wnw35295 0.0 10062317
14:00+10wnw3526100 0.0 10062708
17:00+10nw2426100 0.0 10062561
20:00+7nne014920 0.0 100723
9 may, sun
sun923:00+2nw116720 0.0 100810
02:00+1nw226997 0.0 100921
05:00+1wnw226970 0.0 100926
08:00+6wnw1149100 0.0 1009292
11:00+7se3444100 0.0 1008729
14:00+8se3549100 0.0 1008791
17:00+8se3657100 0.0 1007801
20:00+5se3788100 0.1 1008725
10 may, mon
mon1023:00+4ese1397100 0.1 1008303
02:00+4ese1297100 0.1 1008202
05:00+4ese2496100 0.0 1008268
08:00+4ese2496100 0.1 1010273
11:00+5e2596100 0.1 1009287
14:00+5ene2598100 9.9 1009289
17:00+5ene1597100 2.9 1008280
20:00+5e1197100 3.6 100997
11 may, tue
tue1123:00+5se2399100 0.1 1009119
02:00+5e2499100 0.4 1009199
05:00+6ese1399100 0.0 1008143
08:00+8s129695 0.0 1010145
11:00+17w2467100 0.0 10111138
14:00+15e1169100 0.0 1013495
17:00+15e2371100 0.0 1014382
20:00+11ese128599 0.0 1015102